Regional Weather Roundup
Issued by NWS

Home | Current Version | Previous Version | Text Only | Print | Product List | Glossary On
Versions: 1 2 3 4 5 6 7 8 9 10 11 12 13 14 15 16 17 18 19 20 21 22 23 24 25 26 27 28 29 30 31 32 33 34 35 36 37 38 39 40 41 42 43 44 45 46 47 48 49 50
000
ASUS43 KOAX 242310
RWRNE

WEATHER ROUNDUP FOR NEBRASKA
NATIONAL WEATHER SERVICE OMAHA NE
600 PM CDT FRI OCT 24 2014

NOTES: SATELLITE DATA IS BEING USED TO AUGMENT CLOUD COVER ABOVE
       12000 FEET.
       "FAIR" INDICATES FEW OR NO CLOUDS BELOW 12,000 FEET WITH NO
       SIGNIFICANT WEATHER AND/OR OBSTRUCTIONS TO VISIBILITY.

  * THESE STATIONS DO NOT REPORT WEATHER SUCH AS RAIN...SNOW OR FOG.

NEZ001>004-019>022-054>056-250000-
NEBRASKA PANHANDLE

CITY           SKY/WX    TMP DP  RH WIND       PRES   REMARKS
SCOTTSBLUFF    CLEAR     80  32  17 NW14      30.03S
ALLIANCE       CLEAR     78  37  22 N5        30.02S
CHADRON        CLEAR     77  40  26 E3        29.99R
KIMBALL        CLEAR     78  27  15 N7        30.09F
SIDNEY         CLEAR     78  34  20 N7        30.08S
$$

NEZ057>060-069>072-079>082-250000-
SOUTHWEST NEBRASKA

CITY           SKY/WX    TMP DP  RH WIND       PRES   REMARKS
NORTH PLATTE   CLEAR     79  39  23 W7        29.99R
IMPERIAL       CLEAR     83  33  16 NE5       30.03S
LEXINGTON      CLEAR     81  37  20 W6        29.98R
MCCOOK         CLEAR     83  32  16 NW8       30.00R
OGALLALA       CLEAR     81  33  17 W7        30.03R
$$

NEZ005>010-023>029-035>040-094-250000-
NORTH CENTRAL NEBRASKA

CITY           SKY/WX    TMP DP  RH WIND       PRES   REMARKS
VALENTINE      CLEAR     79  33  19 N3        29.97R
AINSWORTH      CLEAR     75  33  21 CALM      29.98R
BROKEN BOW     CLEAR     80  40  23 N5        29.98R
O`NEILL        CLEAR     73  42  32 CALM      29.97R
ORD            CLEAR     75  42  30 CALM      29.96R
THEDFORD       CLEAR     80  33  18 CALM      30.00R
$$

NEZ041-046>049-061>064-073>077-083>087-250000-
SOUTH CENTRAL NEBRASKA

CITY           SKY/WX    TMP DP  RH WIND       PRES   REMARKS
GRAND ISLAND   CLEAR     75  49  39 N5        29.96R
AURORA         CLEAR     74  46  37 N5        29.96R
HASTINGS       CLEAR     76  48  37 N5        29.96R
HEBRON         CLEAR     77  50  38 CALM      29.93S
HOLDREGE       CLEAR     81  33  17 CALM      29.97S
KEARNEY *      CLEAR     77  45  31 N3        29.97R
YORK           PTCLDY    72  54  53 N5        29.95R HAZE
$$

NEZ011>018-030>034-042>045-250000-
NORTHEAST NEBRASKA

CITY           SKY/WX    TMP DP  RH WIND       PRES   REMARKS
NORFOLK        MOCLDY    71  46  40 NW5       29.95R
ALBION         CLEAR     73  36  25 CALM      29.97R
BLAIR          PTCLDY    73  54  52 CALM      29.92R
COLUMBUS *     PTCLDY    73  46  38 CALM      29.96R
FREMONT        PTCLDY    73  52  46 CALM      29.93R
TEKAMAH        PTCLDY    74  50  42 NW5       29.91R
WAYNE          PTCLDY    70  45  40 NW5       29.94R
$$

NEZ050>053-065>068-078-088>093-250000-
SOUTHEAST NEBRASKA

CITY           SKY/WX    TMP DP  RH WIND       PRES   REMARKS
LINCOLN        MOCLDY    75  55  49 NW3       29.93S
OMAHA EPPLEY   MOCLDY    73  56  54 W3        29.91R
BEATRICE       PTCLDY    74  59  58 W6        29.93R
FALLS CITY     MOCLDY    78  64  61 SW6       29.89S
NEBRASKA CITY  MOCLDY    73  56  57 NW3       29.92R
PLATTSMOUTH    MOCLDY    71  56  59 CALM      29.92R
$$

NEZ044-045-051>053-067-250000-
OMAHA AREA

CITY           SKY/WX    TMP DP  RH WIND       PRES   REMARKS
OMAHA EPPLEY   MOCLDY    73  56  54 W3        29.91R
BLAIR          PTCLDY    73  54  52 CALM      29.92R
FREMONT        PTCLDY    73  52  46 CALM      29.93R
MILLARD        PTCLDY    73  59  60 CALM      29.91R
OFFUTT AFB     PTCLDY    72  63  71 W3        29.90S
PLATTSMOUTH    MOCLDY    71  56  59 CALM      29.92R
WAHOO          FAIR      74  47  38 N3        29.92R
$$



USA.gov is the U.S. government's official web portal to all federal, state and local government web resources and services.